Simultaneous Nadir Overpasses (SNOs) Predictions

Prediction of SNOs between GOES-16 and AQUA Satellite Orbit:

Table of predicted SNOs for the next 14.0 days since TLE Epoch: 8/8/2025
Index Date Time (GOES-16) GOES-16 Lat,Lon AQUA Lat,Lon Distance(km) Time Diff (sec)
1 08/08/2025 22:00:14 0.07,-104.73 -0.67,-108.01 374.15 80
2 08/10/2025 21:42:27 0.07,-104.73 0.47,-103.01 196.48 80
3 08/11/2025 10:01:34 -0.07,-104.74 0.52,-107.63 328.42 80
4 08/13/2025 09:38:25 -0.07,-104.74 -0.52,-102.61 242.32 80
5 08/13/2025 21:57:41 0.08,-104.74 -0.44,-107.27 287.56 80
6 08/15/2025 21:39:52 0.08,-104.74 0.63,-102.25 283.16 80
7 08/16/2025 09:58:59 -0.08,-104.75 0.35,-106.87 241.53 80
8 08/18/2025 09:35:49 -0.09,-104.74 -0.68,-101.85 328.61 80
9 08/18/2025 21:55:04 0.09,-104.73 -0.32,-106.50 201.69 80
10 08/20/2025 21:37:15 0.10,-104.73 0.80,-101.49 369.04 80
11 08/21/2025 09:56:21 -0.10,-104.74 0.17,-106.11 155.19 80
